This demonstration page uses our WeatherBlox Daily Observations layout. Learn more.

36.17497, -115.13722

Hourly Observations for October 30, 2018

Temp ( °F °C ) Dew Point ( °F °C ) Humidity (%) Winds ( mph kmh ) Pressure ( in mb ) Visibility ( mi km ) Precip ( " mm )
12:53 am 00:53 Clear 68 20 34 1.1 28 28 Calm 29.83 1010 10 16.09344 0 0
1:53 am 01:53 Clear 69 20.6 29 -1.7 22 22 NE 9 15 29.83 1010 10 16.09344 0 0
2:53 am 02:53 Clear 68 20 23 -5 18 18 N 14 22 29.83 1010 10 16.09344 0 0
3:53 am 03:53 Clear 67 19.4 24 -4.4 20 20 N 10 17 29.83 1010 10 16.09344 0 0
4:53 am 04:53 Clear 67 19.4 24 -4.4 20 20 NNW 17 28 29.85 1011 10 16.09344 0 0
5:53 am 05:53 Clear 66 18.9 24 -4.4 20 20 N 17 28 29.88 1012 10 16.09344 0 0
6:53 am 06:53 Clear 65 18.3 23 -5 20 20 NNW 16 26 29.88 1012 10 16.09344 0 0
7:53 am 07:53 Sunny 65 18.3 21 -6.1 19 19 NNW 22 35 29.91 1013 10 16.09344 0 0
8:53 am 08:53 Sunny 66 18.9 21 -6.1 18 18 NNW 20 31 29.94 1014 10 16.09344 0 0
9:53 am 09:53 Sunny 68 20 21 -6.1 17 17 N 21 33 29.97 1015 10 16.09344 0 0
10:53 am 10:53 Sunny 70 21.1 20 -6.7 15 15 NNW 30 48 29.97 1015 10 16.09344 0 0
11:53 am 11:53 Sunny 70 21.1 20 -6.7 15 15 N 22 35 29.97 1015 10 16.09344 0 0
12:53 pm 12:53 Sunny 72 22.2 19 -7.2 13 13 N 24 39 29.94 1014 10 16.09344 0 0
1:53 pm 13:53 Sunny 72 22.2 18 -7.8 13 13 N 24 39 29.91 1013 10 16.09344 0 0
2:53 pm 14:53 Sunny 73 22.8 17 -8.3 12 12 NNW 20 31 29.91 1013 10 16.09344 0 0
3:53 pm 15:53 Sunny 72 22.2 15 -9.4 11 11 NNW 17 28 29.91 1013 10 16.09344 0 0
4:53 pm 16:53 Sunny 71 21.7 14 -10 11 11 NNW 22 35 29.91 1013 10 16.09344 0 0
5:53 pm 17:53 Clear 69 20.6 12 -11.1 11 11 N 12 19 29.94 1014 10 16.09344 0 0
6:53 pm 18:53 Clear 68 20 12 -11.1 11 11 N 13 20 29.97 1015 10 16.09344 0 0
7:53 pm 19:53 Clear 66 18.9 10 -12.2 11 11 N 9 15 30 1016 10 16.09344 0 0
8:53 pm 20:53 Clear 64 17.8 11 -11.7 12 12 N 10 17 30.03 1017 10 16.09344 0 0
9:53 pm 21:53 Clear 62 16.7 12 -11.1 14 14 NNW 12 19 30.06 1018 10 16.09344 0 0
10:53 pm 22:53 Clear 62 16.7 14 -10 15 15 N 10 17 30.09 1019 10 16.09344 0 0
11:53 pm 23:53 Clear 60 15.6 14 -10 16 16 N 9 15 30.12 1020 10 16.09344 0 0

Powered by AerisWeather